Flag for U.S.A. Weather past 2 weeks in Ontario, California, U.S.A.

Now
76 °F

Passing clouds.


Feels Like: 78 °F
Forecast: 73 / 95 °F
Wind: 7 mph from West

Location: Ontario International Airport

Current Time: Jul 29, 2015 at 9:56:29 PM

Latest Report: Jul 29, 2015 at 8:53 PM


Visibility: 10 mi

Pressure: 29.92 "Hg

Humidity: 62%

Dew point: 62 °F

Location of OntarioLocation

Historic Weather in Ontario — Graph

°F

Ontario temperature yesterday

Maximum temperature yesterday: 95 °F (at 3:53 PM)
Minimum temperature yesterday: 65 °F (at 3:53 AM)
Average temperature yesterday: 77 °F

Past Weeks' High & Low Weather Summary

 TemperatureHumidityPressure
High96 °F (Jul 17, 2:53 PM)93% (Jul 20, 3:53 AM)30.05 "Hg (Jul 20, 3:53 AM)
Low62 °F (Jul 15, 3:53 AM)18% (Jul 17, 2:53 PM)29.73 "Hg (Jul 17, 5:53 PM)
Average76 °F62%29.89 "Hg
* Reported Jul 14 7:53 PM — Jul 29 7:53 PM, Ontario, Weather by CustomWeather, © 2015

Note: Actual official high and low records may vary slightly from our data, if they occured in-between our weather recording intervals... More about our weather records

Advertising

Ontario weather history for previous 24 hours

 ConditionsComfort  
Time TempWeatherWind HumidityBarometerVisibility
7:53 PM
Wed, Jul 29
80 °FScattered clouds.10 mph54%29.88 "Hg10 mi
6:53 PM86 °FScattered clouds.14 mph45%29.85 "Hg10 mi
5:53 PM90 °FScattered clouds.13 mph39%29.85 "Hg10 mi
4:53 PM91 °FScattered clouds.15 mph39%29.83 "Hg10 mi
3:53 PM93 °FScattered clouds.14 mph37%29.83 "Hg10 mi
2:53 PM95 °FScattered clouds.15 mph35%29.85 "Hg10 mi
1:53 PM95 °FPassing clouds.14 mph34%29.85 "Hg10 mi
12:53 PM93 °FPassing clouds.9 mph34%29.87 "Hg10 mi
11:53 AM87 °FPassing clouds.5 mph40%29.89 "Hg10 mi
10:53 AM80 °FPassing clouds.3 mph52%29.91 "Hg8 mi
9:53 AM75 °FHaze.No wind64%29.91 "Hg5 mi
8:53 AM72 °FHaze.3 mph71%29.91 "Hg5 mi
7:53 AM68 °FHaze.3 mph82%29.90 "Hg4 mi
6:53 AM67 °FHaze.5 mph85%29.89 "Hg4 mi
5:53 AM67 °FHaze.3 mph85%29.87 "Hg6 mi
4:53 AM66 °FClear.3 mph87%29.86 "Hg7 mi
3:53 AM67 °FClear.5 mph81%29.85 "Hg8 mi
2:53 AM67 °FClear.3 mph81%29.85 "Hg10 mi
1:53 AM68 °FClear.6 mph78%29.86 "Hg10 mi
12:53 AM69 °FClear.3 mph79%29.87 "Hg10 mi
11:53 PM
Tue, Jul 28
69 °FClear.5 mph79%29.89 "Hg10 mi
10:53 PM71 °FClear.6 mph73%29.88 "Hg10 mi
9:53 PM74 °FClear.10 mph67%29.87 "Hg10 mi
Weather by CustomWeather, © 2015

See weather overviewHow to use our weather pages